Лон-ле-Сонье

Франция     46°38′23″N   5°36′44″E
темп.,
°C
ветер,
м/с
пор.,
м/с
влажн.,
%
обл.,
%
осадки,
мм/ч
давл.,
гПа
погр.,
м
19 апреля, пн
пн1923:00+5св248567 0.0 102188
02:00+2всв119411 0.0 102112
05:00+1в11945 0.0 102110
08:00+3всв11858 0.0 102150
11:00+10с356114 0.0 1020890
14:00+13ссз455093 0.0 10181870
17:00+14с344989 0.0 10161794
20:00+9ссв238945 0.8 101756
20 апреля, вт
вт2023:00+5всв11955 0.1 101811
02:00+4всв11955 0.1 101810
05:00+3в11955 0.0 101810
08:00+4в00936 0.0 101839
11:00+11сз117319 0.0 1017584
14:00+15сз225212 0.0 10151455
17:00+16сз224946 0.1 10131606
20:00+11св25815 0.3 1014109
21 апреля, ср
ср2123:00+7в1190100 0.0 101513
02:00+6ююз2391100 0.0 101671
05:00+7ююз2395100 0.0 101677
08:00+7ю1292100 0.0 101679
11:00+10юз3583100 0.1 1017651
14:00+11юз3374100 0.2 1017897
17:00+12ююз246698 0.1 10161046
20:00+10ююз118592 0.3 101612
22 апреля, чт
чт2223:00+8ююз249498 0.0 1018108
02:00+8вюв119291 0.0 101818
05:00+8св1193100 0.0 101817
08:00+9ссв1189100 0.0 101880
11:00+12ссв346992 0.0 1018685
14:00+15с455420 0.1 10181484
17:00+15с455433 0.0 10171459
20:00+12ссв410725 0.0 1018565
23 апреля, пт
пт2323:00+6ссв38780 0.0 1021204
02:00+3ссв36870 0.0 1021124
05:00+2ссв35820 0.0 1021113
08:00+4ссв25760 0.0 1021149
11:00+12ссв46430 0.0 10201065
14:00+16с56320 0.0 10181522
17:00+17с56390 0.0 10171274
20:00+12св37590 0.0 1018162